User: anonymous   Login
Location: Limerick
(52.6800°N, 8.6400°W)
Time: 00:55:32
(UTC+01:00)
Language:

Sapphire - Orbit

View from above orbital plane
View from above orbital plane
View from above satellite
View from above satellite

Ground track
Ground track

The orbit data is extracted from the following two-line orbital elements,

1 26932U 01043D   15216.06543719 -.00000015  00000-0  26098-4 0  9996
2 26932 067.0559 055.0064 0004293 259.4029 100.6588 14.30159217722681
Epoch (UTC): 04 August 2015 01:34:13
Eccentricity: 0.0004293
inclination: 67.0559°
perigee height: 788 km
apogee height: 794 km
right ascension of ascending node: 55.0064°
argument of perigee: 259.4029°
revolutions per day: 14.30159217
mean anomaly at epoch: 100.6588°
orbit number at epoch: 72268

The dashed part of the orbit path shows where the satellite is in the earth's shadow,  

DLR